Weather History for Norfolk, NE

Change the Weather History Date:

Wednesday, April 25, 2012

  Actual Average Record
Temperature  
Mean Temperature 71 °F 53 °F  
Max Temperature 87 °F 66 °F 93 °F (1981)
Min Temperature 54 °F 41 °F 25 °F (1934)
Degree Days  
Heating Degree Days 0 12  
Month to date heating degree days 280 416  
Since 1 July heating degree days 5275 6365  
Cooling Degree Days 6 1  
Month to date cooling degree days 20 7  
Year to date cooling degree days 41 7  
Growing Degree Days 21 (Base 50)    
Moisture  
Dew Point 43 °F    
Average Humidity 43    
Maximum Humidity 66    
Minimum Humidity 19    
Precipitation  
Precipitation 0.00 in 0.10 in 1.24 in (1902)
Month to date precipitation 2.34 2.15  
Year to date precipitation 4.83 5.27  
Snow  
Snow 0.00 in 0.00 in - ()
Month to date snowfall 0.0 2.4  
Since 1 July snowfall 15.3 30.3  
Snow Depth 0.00 in    
Sea Level Pressure  
Sea Level Pressure 29.62 in    
Wind  
Wind Speed 11 mph (NW)    
Max Wind Speed 31 mph    
Max Gust Speed 40 mph    
Visibility 10 miles    
Events      
T = Trace of Precipitation, MM = Missing Value Source: NWS Daily Summary

Daily Weather History Graph

Daily Weather History Graph

Search for Another Location

Airport:

Trip Planner

Search our weather history database for the weather conditions in past years. The results will help you decide how hot, cold, wet, or windy it might be!

Date:

Astronomy

Apr. 25, 2012 Rise Set
Actual Time 6:33 AM CDT 8:22 PM CDT
Civil Twilight 6:03 AM CDT 8:52 PM CDT
Nautical Twilight 5:27 AM CDT 9:29 PM CDT
Astronomical Twilight 4:48 AM CDT 10:08 PM CDT
Moon 9:17 AM CDT (4/25) No Moon Set
Length of Visible Light 14h 49m
Length of Day
13h 49m
Waxing Crescent, 17% of the Moon is Illuminated
Apr 25
Waxing Crescent
Apr 29
First Quarter
May 5
Full
May 12
Last Quarter
May 20
New

Hourly Weather History & Observations

Time (CDT) Temp. Dew Point Humidity Pressure Visibility Wind Dir Wind Speed Gust Speed Precip Events Conditions
12:56 AM 64.9 °F 41.0 °F 42% 29.52 in 10.0 mi SSW 8.1 mph - N/A   Clear
1:56 AM 61.0 °F 42.1 °F 50% 29.50 in 10.0 mi Calm Calm - N/A   Clear
3:56 AM 57.0 °F 44.1 °F 62% 29.48 in 10.0 mi Calm Calm - N/A   Clear
4:56 AM 69.1 °F 41.0 °F 36% 29.52 in 10.0 mi Calm Calm - N/A   Clear
5:56 AM 61.0 °F 43.0 °F 52% 29.50 in 10.0 mi South 4.6 mph - N/A   Clear
6:56 AM 61.0 °F 45.0 °F 56% 29.50 in 10.0 mi SSW 5.8 mph - N/A   Clear
7:56 AM 66.9 °F 45.0 °F 45% 29.53 in 10.0 mi West 8.1 mph - N/A   Clear
8:56 AM 73.9 °F 46.9 °F 38% 29.55 in 10.0 mi WNW 15.0 mph - N/A   Clear
9:56 AM 79.0 °F 46.9 °F 32% 29.56 in 10.0 mi NW 18.4 mph 25.3 mph N/A   Clear
11:56 AM 82.9 °F 48.0 °F 29% 29.61 in 10.0 mi NNW 20.7 mph 29.9 mph N/A   Clear
12:56 PM 84.0 °F 46.0 °F 26% 29.62 in 10.0 mi North 21.9 mph 34.5 mph N/A   Clear
1:56 PM 86.0 °F 44.1 °F 23% 29.62 in 10.0 mi NNW 20.7 mph 39.1 mph N/A   Clear
2:56 PM 86.0 °F 45.0 °F 24% 29.65 in 10.0 mi NW 24.2 mph 34.5 mph N/A   Clear
3:56 PM 84.9 °F 39.0 °F 20% 29.66 in 10.0 mi NW 23.0 mph 35.7 mph N/A   Clear
4:56 PM 84.9 °F 37.9 °F 19% 29.65 in 10.0 mi NNW 28.8 mph 36.8 mph N/A   Clear
5:56 PM 82.9 °F 39.0 °F 21% 29.69 in 10.0 mi North 20.7 mph 32.2 mph N/A   Clear
6:56 PM 81.0 °F 39.9 °F 23% 29.72 in 10.0 mi NNW 16.1 mph - N/A   Clear
7:56 PM 73.0 °F 42.1 °F 33% 29.73 in 10.0 mi NNW 5.8 mph - N/A   Clear
8:56 PM 69.1 °F 42.1 °F 38% 29.74 in 10.0 mi Calm Calm - N/A   Clear
9:56 PM 69.1 °F 42.1 °F 38% 29.78 in 10.0 mi Calm Calm - N/A   Clear
10:56 PM 57.0 °F 45.0 °F 64% 29.80 in 10.0 mi WSW 4.6 mph - N/A   Clear
11:56 PM 55.0 °F 45.0 °F 69% 29.81 in 10.0 mi Calm Calm - N/A   Clear